Minot AFB, ND

4:31 AM CST on November 15, 2019 (GMT -0600)
Minot Air Force Base

Weather History for KMIB - September, 2019

Change the Weather History Date:

Wednesday, September 18, 2019

  Actual Average Record
Temperature  
Mean Temperature 66 °F -  
Max Temperature 77 °F 66 °F 82 °F (2008)
Min Temperature 55 °F 41 °F 31 °F (2010)
Cooling Degree Days 2    
Growing Degree Days 16 (Base 50)    
Moisture  
Dew Point 58 °F    
Average Humidity 79    
Maximum Humidity 94    
Minimum Humidity 43    
Precipitation  
Precipitation 0.03 in - - ()
Sea Level Pressure  
Sea Level Pressure 29.61 in    
Wind  
Wind Speed 14 mph (West)    
Max Wind Speed 30 mph    
Max Gust Speed 40 mph    
Visibility 10 miles    
Events Rain    
Averages and records for this station are not official NWS values.
T = Trace of Precipitation, MM = Missing Value Source: NWS Daily Summary

Daily Weather History Graph

Daily Weather History Graph

Search for Another Location

Airport or City:

Astronomy

Sep. 18, 2019 Rise Set
Actual Time 7:26 AM CDT 7:52 PM CDT
Civil Twilight 6:54 AM CDT 8:23 PM CDT
Nautical Twilight 6:17 AM CDT 9:00 PM CDT
Astronomical Twilight 5:38 AM CDT 9:38 PM CDT
Moon 10:07 PM CDT (9/18) 11:49 AM CDT (9/18)
Length of Visible Light 13h 28m
Length of Day
12h 25m
Waning Gibbous, 82% of the Moon is Illuminated
Sep 18
Waning Gibbous
Sep 21
Last Quarter
Sep 28
New
Oct 5
First Quarter
Oct 13
Full

Hourly Weather History & Observations

Time (CDT) Temp. Dew Point Humidity Pressure Visibility Wind Dir Wind Speed Gust Speed Precip Events Conditions
12:56 AM 66.6 °F 59.9 °F 79% 29.46 in 10.0 mi WNW 5.8 mph - N/A   Partly Cloudy
1:56 AM 63.0 °F 59.7 °F 89% 29.47 in 10.0 mi SSE 5.8 mph - N/A   Mostly Cloudy
2:36 AM 66.2 °F 60.8 °F 83% 29.51 in 10.0 mi SW 13.8 mph 19.6 mph N/A   Mostly Cloudy
2:56 AM 64.9 °F 59.4 °F 82% 29.50 in 10.0 mi SW 12.7 mph - N/A   Mostly Cloudy
3:01 AM 64.4 °F 59.0 °F 83% 29.49 in 10.0 mi WSW 9.2 mph - N/A   Scattered Clouds
3:56 AM 62.6 °F 58.3 °F 86% 29.49 in 10.0 mi SW 10.4 mph - N/A   Scattered Clouds
4:01 AM 62.6 °F 59.0 °F 88% 29.49 in 10.0 mi WSW 11.5 mph - N/A   Mostly Cloudy
4:11 AM 62.6 °F 59.0 °F 88% 29.49 in 10.0 mi WSW 13.8 mph 19.6 mph N/A   Scattered Clouds
4:56 AM 60.8 °F 56.8 °F 87% 29.49 in 10.0 mi WSW 8.1 mph - N/A   Clear
5:56 AM 60.3 °F 54.1 °F 80% 29.49 in 10.0 mi SW 13.8 mph - N/A   Scattered Clouds
6:01 AM 60.8 °F 53.6 °F 77% 29.51 in 10.0 mi SW 15.0 mph - N/A   Mostly Cloudy
6:46 AM 60.8 °F 55.4 °F 82% 29.51 in 10.0 mi WSW 12.7 mph - N/A   Mostly Cloudy
6:51 AM 60.8 °F 55.4 °F 82% 29.51 in 10.0 mi WSW 10.4 mph - N/A   Mostly Cloudy
6:56 AM 61.2 °F 55.9 °F 83% 29.51 in 10.0 mi WSW 15.0 mph - N/A   Mostly Cloudy
7:11 AM 62.6 °F 57.2 °F 82% 29.51 in 10.0 mi WSW 13.8 mph - N/A   Overcast
7:31 AM 62.6 °F 59.0 °F 88% 29.51 in 10.0 mi West 12.7 mph 20.7 mph N/A   Overcast
7:56 AM 63.7 °F 59.0 °F 85% 29.50 in 10.0 mi NW 15.0 mph - N/A   Mostly Cloudy
8:06 AM 64.4 °F 60.8 °F 88% 29.52 in 10.0 mi WNW 13.8 mph 24.2 mph N/A   Light Drizzle
8:11 AM 64.4 °F 60.8 °F 88% 29.53 in 10.0 mi West 12.7 mph - N/A Rain Light Rain
8:20 AM 64.4 °F 60.8 °F 88% 29.52 in 10.0 mi West 10.4 mph - N/A   Mostly Cloudy
8:22 AM 64.4 °F 60.8 °F 88% 29.53 in 10.0 mi West 12.7 mph - N/A   Light Drizzle
8:36 AM 64.4 °F 60.8 °F 88% 29.54 in 10.0 mi WNW 17.3 mph 24.2 mph N/A   Mostly Cloudy
8:56 AM 63.1 °F 60.8 °F 92% 29.56 in 5.0 mi WNW 21.9 mph 28.8 mph 0.02 in Rain Light Rain
9:01 AM 62.6 °F 60.8 °F 94% 29.57 in 7.0 mi WNW 18.4 mph 28.8 mph N/A Rain Light Rain
9:06 AM 62.6 °F 60.8 °F 94% 29.57 in 9.0 mi WNW 21.9 mph 27.6 mph N/A Rain Light Rain
9:17 AM 62.6 °F 60.8 °F 94% 29.57 in 10.0 mi WNW 17.3 mph 28.8 mph N/A   Mostly Cloudy
9:27 AM 62.6 °F 59.0 °F 88% 29.58 in 10.0 mi WNW 20.7 mph 29.9 mph N/A   Scattered Clouds
9:56 AM 62.8 °F 59.5 °F 89% 29.59 in 10.0 mi WNW 23.0 mph 31.1 mph 0.01 in   Mostly Cloudy
10:56 AM 67.5 °F 60.6 °F 79% 29.64 in 10.0 mi West 25.3 mph 31.1 mph N/A   Scattered Clouds
11:06 AM 68.0 °F 60.8 °F 78% 29.64 in 10.0 mi WNW 25.3 mph 35.7 mph N/A   Mostly Cloudy
11:36 AM 69.8 °F 60.8 °F 73% 29.65 in 10.0 mi WNW 25.3 mph 34.5 mph N/A   Mostly Cloudy
11:56 AM 69.1 °F 60.1 °F 73% 29.65 in 10.0 mi WNW 29.9 mph 39.1 mph N/A   Mostly Cloudy
12:11 PM 68.0 °F 59.0 °F 73% 29.67 in 10.0 mi WNW 29.9 mph 40.3 mph N/A   Mostly Cloudy
12:56 PM 68.5 °F 59.5 °F 73% 29.69 in 10.0 mi WNW 29.9 mph 38.0 mph N/A   Mostly Cloudy
1:21 PM 68.0 °F 59.0 °F 73% 29.72 in 10.0 mi WNW 28.8 mph 38.0 mph N/A   Mostly Cloudy
1:56 PM 70.5 °F 59.9 °F 69% 29.73 in 10.0 mi WNW 25.3 mph 38.0 mph N/A   Mostly Cloudy
2:01 PM 71.6 °F 59.0 °F 64% 29.72 in 10.0 mi WNW 27.6 mph 34.5 mph N/A   Scattered Clouds
2:56 PM 74.3 °F 58.1 °F 57% 29.73 in 10.0 mi NW 26.5 mph 34.5 mph N/A   Clear
3:56 PM 76.5 °F 55.2 °F 48% 29.74 in 10.0 mi NW 21.9 mph - N/A   Clear
4:56 PM 76.8 °F 54.5 °F 46% 29.76 in 10.0 mi NW 20.7 mph - N/A   Clear
5:56 PM 76.6 °F 52.5 °F 43% 29.78 in 10.0 mi NW 12.7 mph - N/A   Clear
6:56 PM 74.1 °F 54.3 °F 50% 29.81 in 10.0 mi NW 8.1 mph - N/A   Clear
7:56 PM 65.8 °F 54.1 °F 66% 29.83 in 10.0 mi WNW 5.8 mph - N/A   Clear
8:56 PM 61.7 °F 53.6 °F 75% 29.88 in 10.0 mi WSW 4.6 mph - N/A   Clear
9:56 PM 57.4 °F 53.2 °F 86% 29.89 in 10.0 mi West 5.8 mph - N/A   Clear
10:56 PM 57.0 °F 52.2 °F 84% 29.91 in 10.0 mi West 5.8 mph - N/A   Clear
11:56 PM 55.0 °F 52.2 °F 90% 29.91 in 10.0 mi Calm Calm - N/A   Clear